Starlink 2166

operational
NORAD ID: 48558 Int'l Des: 2021-041 Owner: SPXS Country: US Constellation: starlink
LEOCIRCULARSTARLINK_TYPE

About Starlink 2166

Description loading...

Live Position

Loading 3D Globe...

Upcoming Passes

Altitude History

Altitude vs Time

uPlot chart will show altitude changes over time

Two-Line Element Set

1 48558U 21041F 25303.46551359 -.00003501 00000-0 -21634-3 0 9999
2 48558 53.0563 356.2175 0001628 82.6347 277.4827 15.06388563244710
Epoch: Oct 30, 2025 • Age: 32 hours

Current Status

Altitude 553.4 km
Velocity 7.58 km/s
Sub-Earth Point -20.50°S, 10.14°E
Launch Date May 15, 2021
Age 4.4 years
Type internet

Technical Details

Classification Payload
Mass 260.00 kg
Dry Mass 248.00 kg
Total Mass 260.00 kg
Length 0.20 m
Diameter 2.80 m
Span 9.00 m
Shape Box + pan
Manufacturer SPXS
Bus Type Starlink
Phase Status In Orbit
Owner/State SPXS/US

Large Constellations

Loading constellations...